Location: Moy Burn
(57.3833°N, 4.0667°W)
Time: 10:14:04
(UTC+00:00)

Cosmos 2016 Rocket - Pass Details

Date: 08 August 2020
Orbit: 946 x 1001 km, 83.0° (Epoch: 18 September)

Event Time Altitude Azimuth Distance (km) Brightness Sun altitude
Exits shadow 22:40:01 19° 161° (SSE) 2,170 5.2 -13.8°
Maximum altitude 22:44:27 53° 92° (E) 1,218 4.3 -14.1°
Drops below altitude 10° 22:50:38 10° 18° (NNE) 2,787 7.1 -14.4°
Sets 22:53:14 0° 14° (NNE) 3,741 8.0 -14.6°
